Location: Newark
(0.5300°S, 127.4800°E)
Time: 09:52:32
(UTC+00:00)

A-11 Canister half - Pass Details

Date: 22 September 2019
Orbit: 1514 x 1686 km, 47.2° (Epoch: 23 October)

Event Time Altitude Azimuth Distance (km) Brightness Sun altitude
Rises 10:58:21 0° 303° (WNW) 4,737 12.5 -23.9°
Reaches altitude 10° 11:01:36 10° 297° (WNW) 3,778 11.9 -24.7°
Maximum altitude 11:10:29 42° 229° (SW) 2,183 10.0 -26.9°
Drops below altitude 10° 11:19:44 10° 161° (SSE) 3,909 10.9 -29.2°
Enters shadow 11:22:10 - 156° (SSE) 4,608 11.3 -29.8°
Sets 11:23:12 0° 154° (SSE) 4,915 - -30.1°
